Regional Weather Roundup
Issued by NWS

Home | Current Version | Previous Version | Graphics & Text | Print | Product List | Glossary On
Versions: 1 2 3 4 5 6 7 8 9 10 11 12 13 14 15 16 17 18 19 20 21 22 23 24 25 26 27 28 29 30 31 32 33 34 35 36 37 38 39 40 41 42 43 44 45 46 47 48 49 50
889
ASUS45 KCYS 261010
RWRWY

WYOMING REGIONAL WEATHER ROUNDUP
NATIONAL WEATHER SERVICE CHEYENNE WY
400 AM MDT THU MAY 26 2016

NOTE:  "FAIR" INDICATES FEW OR NO CLOUDS BELOW 12,000 FEET
WITH NO SIGNIFICANT WEATHER AND/OR OBSTRUCTIONS TO VISIBILITY.

WYZ001-261100-
YELLOWSTONE NATIONAL PARK

CITY           SKY/WX    TMP DP  RH WIND       PRES   REMARKS
LK YELLOWSTONE   N/A     31  29  92 CALM      30.12S
W YELLOWSTONE  NOT AVBL

$$
WYZ002>013-054>058-071-098>099-261100-
NORTHERN WYOMING

CITY           SKY/WX    TMP DP  RH WIND       PRES   REMARKS
JACKSON        CLOUDY    34  34 100 N3        30.10F
CODY           FAIR      45  36  70 NW3       29.99S
GREYBULL       CLOUDY    49  47  93 NW10      29.97R
WORLAND        FAIR      42  40  92 S6        29.95F
SHERIDAN       CLOUDY    50  41  71 W13       29.94F
BUFFALO        FAIR      46  38  73 NW10      29.96R
GILLETTE       FAIR      44  40  85 W6        29.93S
HULETT         FAIR      43  41  93 S6        29.93S
NEWCASTLE      FAIR      39  36  87 CALM      29.94R

$$
WYZ014>020-022>026-101>103-261100-
CENTRAL WYOMING

CITY           SKY/WX    TMP DP  RH WIND       PRES   REMARKS
BIG PINEY      FAIR      32  29  88 N9        30.09F WCI  24
PINEDALE       FAIR      32  32 100 NW7       30.09F WCI  26
DUBOIS         FAIR      37  30  75 NW10      30.06F WCI  30
LANDER         FAIR      43  31  62 S3        29.99S
RIVERTON       FAIR      45  33  63 W14       30.00R
CASPER         FAIR      36  34  92 W3        29.98S
DOUGLAS          N/A    N/A N/A N/A MISG      29.97S

$$
WYZ021-027>030-104>119-261100-
SOUTHERN WYOMING

CITY           SKY/WX    TMP DP  RH WIND       PRES   REMARKS
EVANSTON       FAIR      38  34  85 N5        30.08F WCI  34
KEMMERER         N/A     32  32 100 NW6       30.09S WCI  26
FORT BRIDGER   SUNNY     37  37 100 W8        30.10F WCI  31
ROCK SPRINGS   FAIR      37  33  85 SE6       30.06R WCI  32
DIXON          FAIR      37  31  79 E3        30.10S
RAWLINS        FAIR      34  29  82 CALM      30.06F
SARATOGA       FAIR      32  30  93 CALM      30.08F
LARAMIE        FAIR      31  27  85 W6        30.06S WCI  25
CHEYENNE       FAIR      38  32  79 W8        30.03R WCI  32
TORRINGTON     FAIR      42  38  85 CALM      29.95R
PINE BLUFFS    FAIR      37  36  93 W5        30.00S WCI  34

$$




USA.gov is the U.S. government's official web portal to all federal, state and local government web resources and services.